Location: Unspecified
(49.2170°N, 0.0000°E)
Time: 16:41:25
(UTC+00:00)

Transit 2A - Pass Details

Date: 23 June 2019
Orbit: 594 x 964 km, 66.7° (Epoch: 19 July)

Event Time Altitude Azimuth Distance (km) Brightness Sun altitude
Rises 03:19:26 0° 281° (W) 3,645 9.2 -5.1°
Reaches altitude 10° 03:22:58 10° 299° (WNW) 2,677 8.7 -4.7°
Maximum altitude 03:27:07 18° 341° (NNW) 2,111 8.6 -4.2°
Drops below altitude 10° 03:31:08 10° 23° (NNE) 2,568 10.0 -3.8°
Sets 03:34:27 0° 42° (NE) 3,442 12.3 -3.4°
